Location: Poughquag
(41.6090°N, 73.6820°W)
Time: 09:06:20
(UTC-05:00)

Altair - Pass Details

Date: 29 November 2023
Orbit: 1501 x 1682 km, 47.2° (Epoch: 02 March)

Event Time Altitude Azimuth Distance (km) Brightness Sun altitude
Rises 10:29:33 0° 247° (WSW) 4,784 10.1 24.6°
Reaches altitude 10° 10:32:41 10° 249° (WSW) 3,776 9.7 24.8°
Maximum altitude 10:42:16 82° 337° (NNW) 1,553 7.9 25.3°
Drops below altitude 10° 10:51:33 10° 66° (ENE) 3,668 9.5 25.8°
Sets 10:54:33 0° 67° (ENE) 4,642 9.9 25.9°
